Location: Namasale
(1.5000°N, 32.6167°E)
Time: 21:09:10
(UTC+00:00)

Vanguard 3 - Pass Details

Date: 04 December 2021
Orbit: 508 x 3260 km, 33.3° (Epoch: 19 January)

Event Time Altitude Azimuth Distance (km) Brightness Sun altitude
Exits shadow 23:03:17 18° 44° (NE) 5,486 11.2 -60.9°
Drops below altitude 10° 23:06:48 10° 47° (NE) 6,171 11.6 -60.3°
Sets 23:11:33 0° 50° (NE) 7,100 12.0 -59.5°
